Gillette, WY

12:16 PM MDT on September 21, 2014 (GMT -0600)
Gillette-Campbell County | Change Station
CLOSE
Current Station
Airport
Location: Gillette,
Elevation: 4364 ft
Nearby Weather Stations

Elev 4364 ft 44.34 °N, 105.54 °W | Updated 23 minutes ago

Clear
Clear
70 °F
Feels Like 70 °F
N
14
Wind Variable Wind from SE

Today
High -- | Low -- °F
--% Chance of Precip.
Yesterday
High -- | Low -- °F
Precip. -- in
6:48 AM 7:01 PM
Waning Crescent, 6% visible
Pressure 30.27 in
Visibility 10.0 miles
Clouds Clear
Dew Point 40 °F
Humidity 33%
Rainfall 0.00 in
Snow Depth 0 in , 0 in , 0 in
UV 7 out of 12
Pollen 5.00 out of 12
Air Quality Not available.
Flu Activity Not available.
METAR KGCC 211753Z AUTO 13012KT 10SM CLR 21/04 A3033 RMK AO2 SLP249 T02110044 10217 20017 58007

More Conditions Fewer Conditions

Pressure 30.27 in
Visibility 10.0 miles
Clouds Clear
Dew Point 40 °F
Humidity 33%
Rainfall 0.00 in
Snow Depth 0 in , 0 in , 0 in
UV 7 out of 12
Pollen 5.00 out of 12
Air Quality Not available.
Flu Activity Not available.
METAR KGCC 211753Z AUTO 13012KT 10SM CLR 21/04 A3033 RMK AO2 SLP249 T02110044 10217 20017 58007

More Conditions Fewer Conditions

10-Day Weather Forecast

Almanac

Astronomy

Sep. 21, 2014 Rise Set
Actual Time 6:48 AM MDT 7:01 PM MDT
Civil Twilight 6:19 AM MDT 7:30 PM MDT
Nautical Twilight 5:45 AM MDT 8:05 PM MDT
Astronomical Twilight 5:10 AM MDT 8:40 PM MDT
Moon 4:20 AM MDT 5:42 PM MDT
Length of Visible Light 13h 11m
Length of Day
12h 13m
Tomorrow will be 3m 4s shorter.
Waning Crescent, 6% of the Moon is Illuminated
Today
Waning Crescent
Sep 24
New
Oct 1
First Quarter
Oct 8
Full
Oct 15
Last Quarter

Today's Extremes

State Highs State Lows

Community

WunderPhotos

Upload Photos

1,755,213 photos uploaded!

WunderBlogs® & News

Nearby

Snow Depth

Station Depth Elevation
Thumb Divide 0 in 7980 ft
Phillips Bench 0 in 8200 ft
Salt River Summit 0 in 7600 ft
Casper Mountain 0 in 7850 ft
Lewis Lake Divide 0 in 7850 ft

Earthquake Activity

City Distance Mag. Time & Date
No recent earthquake activity has been reported nearby.
Minimum magnitude displayed is 2.5.

Coastal Water Temperatures

Place Temperature
No Stations Reporting

Nearby Weather Stations